Le nostre stazioni meteo in Italia

Pubblicità
Il mio iltempo24.it
Capo Palinuro, Italia (16310): Temperatura & dewpoint: 17.01.2019 05:00:00 - 23.01.2019 05:00:00 (CET)Capo Palinuro, Italia (16310): velocità del vento: 17.01.2019 05:00:00 - 23.01.2019 05:00:00 (CET)Capo Palinuro, Italia (16310): direzione del vento: 17.01.2019 05:00:00 - 23.01.2019 05:00:00 (CET)Capo Palinuro, Italia (16310): reduced air pressure: 17.01.2019 05:00:00 - 23.01.2019 05:00:00 (CET)Capo Palinuro, Italia (16310): visibility: 17.01.2019 05:00:00 - 23.01.2019 05:00:00 (CET)Capo Palinuro, Italia (16310): ore di luce: 17.01.2019 05:00:00 - 23.01.2019 05:00:00 (CET)
Data & Tempo tt [°C] td [°C] ff [km/h] ff [kn] dd ppp [hPa] vv [km] sd [min]
23.01.2019 05:00:00 - - - - - - - -
23.01.2019 04:00:00 7,6 5,2 11 6 ESE 1003,6 15 -
23.01.2019 03:00:00 7,4 5,2 13 7 NNE 1003,9 15 -
23.01.2019 02:00:00 8,0 6,3 15 8 NNO 1004,1 15 -
23.01.2019 01:00:00 8,8 5,2 15 8 O 1005,0 15 -
23.01.2019 00:00:00 8,8 5,5 11 6 ONO 1005,2 15 -
22.01.2019 23:00:00 9,2 5,9 13 7 N 1005,2 15 -
22.01.2019 22:00:00 9,0 5,7 13 7 NNO 1005,3 15 -
22.01.2019 21:00:00 9,0 7,1 11 6 NNO 1005,4 20 -
22.01.2019 20:00:00 9,6 6,5 13 7 ONO 1005,2 15 -
22.01.2019 19:00:00 10,0 5,8 16 9 ONO 1005,2 20 -
22.01.2019 18:00:00 10,6 8,0 26 14 ONO 1005,1 15 -
22.01.2019 17:00:00 10,6 6,7 29 16 NNO 1005,2 15 18
22.01.2019 16:00:00 10,6 6,9 21 11 NO 1005,3 20 6
22.01.2019 15:00:00 11,0 6,9 28 15 NNO 1005,3 20 12
22.01.2019 14:00:00 11,0 8,4 22 12 NO 1005,2 15 0
22.01.2019 13:00:00 11,0 7,3 22 12 ONO 1005,2 15 0
22.01.2019 12:00:00 11,0 8,0 18 10 OSO 1005,1 15 12
22.01.2019 11:00:00 11,0 8,4 22 12 SSO 1006,1 15 0
22.01.2019 10:00:00 11,0 8,4 26 14 SSO 1005,1 10 0
22.01.2019 09:00:00 11,0 8,2 29 16 S 1005,1 15 0
22.01.2019 08:00:00 10,6 8,0 26 14 SO 1006,1 15 0
22.01.2019 07:00:00 10,6 8,0 22 12 SO 1006,1 10 -
22.01.2019 06:00:00 10,6 8,2 11 6 SE 1006,4 15 -
22.01.2019 05:00:00 10,6 8,2 16 9 SSO 1006,8 12 -
22.01.2019 04:00:00 10,6 8,2 11 6 SSE 1007,4 12 -
22.01.2019 03:00:00 10,6 8,2 13 7 SSE 1007,4 12 -
22.01.2019 02:00:00 10,8 8,4 22 12 OSO 1009,1 12 -
22.01.2019 01:00:00 11,0 9,1 15 8 SSO 1009,1 12 -
22.01.2019 00:00:00 11,0 9,4 18 10 SSO 1009,8 12 -
21.01.2019 23:00:00 11,0 8,7 21 11 S 1009,8 15 -
21.01.2019 22:00:00 11,8 7,3 16 9 S 1009,6 20 -
21.01.2019 21:00:00 11,6 6,3 22 12 SSE 1009,9 20 -
21.01.2019 20:00:00 11,4 6,7 15 8 NNE 1009,9 20 -
21.01.2019 19:00:00 11,4 6,9 18 10 NNE 1010,0 20 -
21.01.2019 18:00:00 11,8 7,5 15 8 S 1010,5 20 -
21.01.2019 17:00:00 11,6 7,3 21 11 SSE 1010,9 20 0
21.01.2019 16:00:00 11,8 7,5 16 9 SE 1011,4 20 0
21.01.2019 15:00:00 12,0 8,5 15 8 ENE 1011,6 20 24
21.01.2019 14:00:00 12,0 8,1 15 8 SSE 1011,8 20 24
21.01.2019 13:00:00 12,0 7,7 16 9 ESE 1012,3 20 30
21.01.2019 12:00:00 11,6 7,9 16 9 E 1013,0 20 12
21.01.2019 11:00:00 11,4 7,7 11 6 NO 1012,9 20 12
21.01.2019 10:00:00 11,0 6,7 21 11 SO 1012,5 20 30
21.01.2019 09:00:00 10,0 6,9 8 4 SSO 1012,6 20 0
21.01.2019 08:00:00 9,4 7,0 8 4 SO 1012,7 20 0
21.01.2019 07:00:00 9,4 7,0 0 0 N 1012,7 20 -
21.01.2019 06:00:00 9,6 7,4 9 5 ONO 1012,8 15 -
21.01.2019 05:00:00 9,6 7,4 8 4 O 1012,8 15 -
21.01.2019 04:00:00 10,0 7,9 8 4 ONO 1013,0 6 -
21.01.2019 03:00:00 10,2 7,4 5 3 NO 1013,1 20 -
21.01.2019 02:00:00 10,4 8,3 0 0 N 1013,0 20 -
21.01.2019 01:00:00 10,4 8,3 8 4 ONO 1013,0 20 -
21.01.2019 00:00:00 10,8 8,4 5 3 ONO 1012,9 15 -
20.01.2019 23:00:00 10,8 8,9 8 4 ONO 1012,8 20 -
20.01.2019 22:00:00 10,8 8,4 0 0 N 1012,7 20 -
20.01.2019 21:00:00 10,8 8,5 0 0 N 1012,6 20 -
20.01.2019 20:00:00 10,8 8,7 0 0 N 1012,6 20 -
20.01.2019 19:00:00 10,8 8,7 0 0 N 1012,5 20 -
20.01.2019 18:00:00 10,8 8,7 0 0 N 1012,5 20 -
20.01.2019 17:00:00 11,0 8,9 0 0 N 1012,6 20 0
20.01.2019 16:00:00 11,2 8,2 8 4 O 1012,5 20 0
20.01.2019 15:00:00 12,0 10,1 9 5 SO 1012,7 20 0
20.01.2019 14:00:00 12,4 9,6 8 4 SSO 1013,1 20 0
20.01.2019 13:00:00 12,4 9,4 11 6 SSO 1013,3 20 0
20.01.2019 12:00:00 12,4 8,9 15 8 SSO 1013,4 20 60
20.01.2019 11:00:00 11,6 7,3 11 6 S 1013,3 20 60
20.01.2019 10:00:00 11,6 7,1 9 5 NO 1013,2 20 60
20.01.2019 09:00:00 10,2 6,5 11 6 NNE 1013,3 20 60
20.01.2019 08:00:00 10,0 7,4 9 5 NO 1013,3 18 60
20.01.2019 07:00:00 9,0 4,8 11 6 NO 1013,5 15 0
20.01.2019 06:00:00 9,0 5,0 15 8 NO 1013,5 20 -
20.01.2019 05:00:00 8,6 5,7 15 8 SSO 1013,5 20 -
20.01.2019 04:00:00 8,6 5,5 15 8 OSO 1013,5 20 -
20.01.2019 03:00:00 8,6 5,7 11 6 OSO 1013,8 20 -
20.01.2019 02:00:00 8,8 6,6 9 5 SSO 1013,8 20 -
20.01.2019 01:00:00 8,8 6,4 9 5 OSO 1013,5 20 -
20.01.2019 00:00:00 8,8 6,4 9 5 SSO 1013,8 20 -
19.01.2019 23:00:00 9,0 7,1 11 6 OSO 1013,8 20 -
19.01.2019 22:00:00 9,0 7,0 11 6 SSO 1013,5 20 -
19.01.2019 21:00:00 9,0 6,6 9 5 SSO 1013,8 20 -
19.01.2019 20:00:00 10,4 8,3 9 5 SSO 1013,7 20 -
19.01.2019 19:00:00 10,0 7,8 11 6 OSO 1013,4 20 -
19.01.2019 18:00:00 11,0 9,1 0 0 N 1013,6 18 -
19.01.2019 17:00:00 11,0 8,9 0 0 N 1014,3 18 18
19.01.2019 16:00:00 11,4 9,0 0 0 N 1014,2 18 30
19.01.2019 15:00:00 11,8 8,5 9 5 OSO 1014,2 18 30
19.01.2019 14:00:00 12,0 8,3 11 6 OSO 1014,2 18 60
19.01.2019 13:00:00 11,2 8,3 9 5 SO 1014,3 18 60
19.01.2019 12:00:00 - - - - - - - -
19.01.2019 11:00:00 11,0 7,9 15 8 SSO 1014,3 18 48
19.01.2019 10:00:00 10,2 7,4 8 4 SSO 1014,3 15 0
19.01.2019 09:00:00 9,8 7,2 8 4 S 1014,4 15 0
19.01.2019 08:00:00 9,4 6,8 8 4 S 1014,3 15 0
19.01.2019 07:00:00 9,2 6,7 5 3 SE 1014,3 15 0
19.01.2019 06:00:00 9,2 6,7 5 3 SE 1014,3 15 -
19.01.2019 05:00:00 9,0 6,4 5 3 ESE 1014,4 15 -
19.01.2019 04:00:00 9,0 6,8 9 5 SE 1014,9 12 -
19.01.2019 03:00:00 9,8 7,7 8 4 SSE 1015,0 12 -
19.01.2019 02:00:00 - - - - - - - -
19.01.2019 01:00:00 10,2 8,1 9 5 SSE 1015,2 15 -
19.01.2019 00:00:00 10,2 8,0 9 5 S 1015,2 15 -
18.01.2019 23:00:00 10,2 8,0 9 5 SSE 1015,2 10 -
18.01.2019 22:00:00 10,2 7,8 8 4 SE 1015,2 15 -
18.01.2019 21:00:00 10,2 7,6 9 5 ESE 1015,1 15 -
18.01.2019 20:00:00 10,2 7,6 8 4 SE 1015,1 15 -
18.01.2019 19:00:00 10,2 7,3 8 4 S 1015,1 15 0
18.01.2019 18:00:00 10,0 7,9 5 3 E 1015,0 15 18
18.01.2019 17:00:00 10,4 8,3 8 4 S 1014,9 15 60
18.01.2019 16:00:00 11,0 8,7 8 4 SE 1015,1 10 42
18.01.2019 15:00:00 11,2 9,1 9 5 S 1015,3 15 0
18.01.2019 14:00:00 9,6 6,3 8 4 S 1015,6 15 0
18.01.2019 13:00:00 9,8 6,3 9 5 SSE 1016,0 15 0
18.01.2019 12:00:00 9,4 6,3 5 3 OSO 1016,2 15 0
18.01.2019 11:00:00 9,0 6,1 5 3 ONO 1016,1 15 0
18.01.2019 10:00:00 9,0 6,3 8 4 NO 1015,7 15 18
18.01.2019 09:00:00 9,0 6,3 5 3 NNO 1015,5 10 0
18.01.2019 08:00:00 9,0 6,4 8 4 ONO 1015,4 10 0
18.01.2019 07:00:00 9,0 6,3 4 2 NNO 1015,4 10 -
18.01.2019 06:00:00 9,0 7,3 5 3 SSO 1015,7 15 -
18.01.2019 05:00:00 9,0 7,3 11 6 SE 1015,8 10 -
18.01.2019 04:00:00 9,0 7,3 11 6 OSO 1016,4 20 -
18.01.2019 03:00:00 9,0 7,3 11 6 SO 1016,4 20 -
18.01.2019 02:00:00 9,0 5,2 5 3 SSO 1017,7 20 -
18.01.2019 01:00:00 9,0 6,1 15 8 SSO 1017,6 20 -
18.01.2019 00:00:00 9,0 5,4 13 7 SSO 1017,7 20 -
17.01.2019 23:00:00 9,0 5,0 13 7 SSO 1017,9 20 -
17.01.2019 22:00:00 9,0 3,8 11 6 OSO 1018,2 20 -
17.01.2019 21:00:00 9,0 4,8 13 7 S 1018,5 20 -
17.01.2019 20:00:00 9,0 5,9 15 8 SSE 1018,5 20 -
17.01.2019 19:00:00 9,0 5,9 13 7 SSE 1018,4 20 -
17.01.2019 18:00:00 - - - - - - - -
17.01.2019 17:00:00 10,0 7,4 13 7 SSE 1020,4 20 -
17.01.2019 16:00:00 9,8 6,7 21 11 S 1020,4 20 60
17.01.2019 15:00:00 10,0 6,7 22 12 SSE 1020,4 20 60
17.01.2019 14:00:00 10,0 6,7 22 12 SSE 1020,5 20 60
17.01.2019 13:00:00 10,0 5,2 18 10 NNO 1020,7 20 60
17.01.2019 12:00:00 10,0 4,8 18 10 NO 1021,5 20 60
17.01.2019 11:00:00 10,0 5,2 15 8 NNO 1021,2 20 60
17.01.2019 10:00:00 8,0 4,2 9 5 NO 1021,5 20 60
17.01.2019 09:00:00 7,8 4,9 9 5 NE 1021,4 20 60
17.01.2019 08:00:00 7,6 5,4 8 4 O 1021,5 20 30
17.01.2019 07:00:00 7,6 5,4 8 4 ESE 1021,4 20 -
17.01.2019 06:00:00 7,6 5,9 9 5 ENE 1021,4 20 -
17.01.2019 05:00:00 7,6 5,4 9 5 ONO 1022,1 20 -

tt = Temperatura
td = dewpoint
ff = velocità del vento
dd = direzione del vento
ppp = reduced air pressure
vv = visibility
sd = ore di luce

Stazioni seguenti

WeatherPro
AMSI
MeteoEarth